{"data":{"norad_id":62562,"intl_designator":"2025-006J","name":"STARLINK-11530 [DTC]","alt_names":[],"object_type":"PAYLOAD","status":"ACTIVE","operator":null,"country":"US","launch_date":"2025-01-10","launch_site_code":"AFETR","launch_vehicle":null,"mission":null,"orbit_class":"UNKNOWN","rcs_meters":null,"size_class":null,"mass_kg":null,"dimensions":null,"purposes":["comms"],"wikipedia_slug":null,"has_3d_model":false,"image_url":null,"decayed_at":null,"tle_current":{"epoch":"2026-05-24T16:57:57.450816Z","epoch_age_seconds":100698,"freshness":"FRESH","line1":"1 62562U 25006J   26144.70691494  .00209456  00000+0  15856-2 0  9993","line2":"2 62562  43.0014  42.0703 0004009 275.4413  84.5998 15.70975718 78558","mean_motion":15.70975718,"eccentricity":0.0004009,"inclination_deg":43.0014,"raan_deg":42.0703,"arg_perigee_deg":275.4413,"mean_anomaly_deg":84.5998,"bstar":0.0015856,"rev_number":7855,"period_min":91.662778966008,"perigee_km":353.40742355858,"apogee_km":358.80694054375,"semimajor_km":6734.2441820512,"source":"CELESTRAK","updated_at":"2026-05-25T13:38:19.708196Z"}}}